Terminal Aerodrome Forecast
Issued by NWS Des Moines, IA

Home | Current Version | Previous Version | Text Only | Print | Product List | Glossary On
Versions: 1 2 3 4 5 6 7 8 9 10 11 12 13 14 15 16 17 18 19 20 21 22 23 24 25 26 27 28 29 30 31 32 33 34 35 36 37 38 39 40 41 42 43 44
000
FTUS43 KDMX 301804 AAA
TAFDSM
TAF AMD
KDSM 301804Z 3018/3118 19008G16KT P6SM FEW050 SCT180 BKN250
     FM302300 16009KT P6SM VCTS BKN050CB
     FM310300 16005KT P6SM SCT060 BKN110
     FM310500 18005KT P6SM VCTS BKN050CB BKN110
     FM310700 18003KT P6SM BKN060 BKN100
     FM311400 19006KT P6SM VCTS BKN050CB=

USA.gov is the U.S. government's official web portal to all federal, state and local government web resources and services.